Location: Poughquag
(41.6090°N, 73.6820°W)
Time: 10:07:29
(UTC-05:00)

Vanguard 1 - Pass Details

Date: 30 November 2023
Orbit: 653 x 3826 km, 34.3° (Epoch: 25 February)

Event Time Altitude Azimuth Distance (km) Brightness Sun altitude
Rises 16:50:09 0° 207° (SSW) 5,576 14.8 -4.9°
Reaches altitude 10° 16:53:44 10° 198° (SSW) 4,968 14.3 -5.5°
Maximum altitude 17:07:21 36° 138° (SE) 4,353 13.2 -7.9°
Enters shadow 17:26:02 11° 83° (E) 6,863 13.7 -11.1°
Drops below altitude 10° 17:26:24 10° 82° (E) 6,924 - -11.2°
Sets 17:32:33 0° 76° (ENE) 7,953 - -12.3°
